{"data":{"norad_id":68983,"epoch":"2026-05-25T03:20:40.913088Z","epoch_age_seconds":62471,"freshness":"FRESH","line1":"1 68983U 26100D   26145.13936242  .00001377  00000+0  14384-3 0  9991","line2":"2 68983  97.7406  43.0151 0002819 195.0974 165.0161 14.91297077  3266","mean_motion":14.91297077,"eccentricity":0.0002819,"inclination_deg":97.7406,"raan_deg":43.0151,"arg_perigee_deg":195.0974,"mean_anomaly_deg":165.0161,"bstar":0.00014384,"rev_number":326,"period_min":96.560237541457,"perigee_km":591.92463814302,"apogee_km":595.85546699526,"semimajor_km":6972.0270525691,"source":"CELESTRAK","updated_at":"2026-05-25T13:38:08.807252Z"}}